Regional Weather Roundup
Issued by NWS

Home | Current Version | Previous Version | Text Only | Print | Product List | Glossary On
Versions: 1 2 3 4 5 6 7 8 9 10 11 12 13 14 15 16 17 18 19 20 21 22 23 24 25 26 27 28 29 30 31 32 33 34 35 36 37 38 39 40 41 42 43 44 45 46 47 48 49 50
000
ASUS43 KDTX 152101
RWRMI
MICHIGAN HOURLY REGIONAL WEATHER ROUNDUP
NATIONAL WEATHER SERVICE DETROIT/PONTIAC MI
400 PM EST FRI DEC 15 2017

NOTE: "FAIR" INDICATES FEW OR NO CLOUDS BELOW 12,000 FEET WITH NO
SIGNIFICANT WEATHER AND/OR OBSTRUCTION TO VISIBILITY.

MIZ047>049-052>055-059>063-066>070-074>076-081>083-152200-
SOUTHEAST LOWER MICHIGAN

CITY           SKY/WX    TMP DP  RH WIND       PRES   REMARKS
ADRIAN         CLOUDY    26  17  68 W15G21    29.86R WCI  14
ALMA           CLOUDY    24  18  77 W8        29.80R WCI  15
ANN ARBOR      CLOUDY    26  18  71 W10       29.81R WCI  16
BAD AXE        CLOUDY    24  18  77 W15       29.72S WCI  11
CARO           PTCLDY    23  15  72 W10       29.75R WCI  12
DETROIT CITY   FLURRIES  25  20  81 W10       29.81R WCI  15
DETROIT        LGT SNOW  28  21  75 W10       29.83R WCI  19
FLINT          LGT SNOW  24  19  81 W10       29.78R WCI  14
GROSSE ILE     CLOUDY    28  19  70 W12G20    29.82R WCI  17
HILLSDALE      CLOUDY    27  18  69 W13G20    29.82R WCI  16
HOWELL         LGT SNOW  25  22  86 W14G21    29.79R WCI  13

CITY           SKY/WX    TMP DP  RH WIND       PRES   REMARKS
JACKSON        CLOUDY    27  16  63 SW13      29.81S WCI  16
LAMBERTVILLE   CLOUDY    27  18  70 W9G22     29.86R WCI  17
LANSING        FLURRIES  25  20  81 W17       29.81R WCI  12
LAPEER         LGT SNOW  25  19  80 W9        29.77R WCI  15
MASON          FLURRIES  27  18  70 W10G20    29.81R WCI  17
MT. CLEMENS    PTCLDY    26  22  85 W14       29.77S FOG     WCI  14
PONTIAC        LGT SNOW  24  20  84 W10       29.76S FOG     WCI  14
PORT HOPE        N/A     24  19  81 W10G18    29.70R WCI  14
PORT HURON     FLURRIES  25  18  74 SW7       29.77S WCI  17
TRI CITIES     CLOUDY    24  14  65 W17G25    29.77R WCI  11
MIDLAND        CLOUDY    26  13  59 W13G20    29.76R WCI  15
TROY           CLOUDY    26  21  81 SW8       29.81R WCI  18
SAGINAW HB     MOCLDY    25  16  68 W15G21    29.77R WCI  12
$$
MIZ043>046-050>051-056>058-064>065-071>073-077>080-152200-
SOUTHWEST LOWER MICHIGAN

CITY           SKY/WX    TMP DP  RH WIND       PRES   REMARKS
BATTLE CREEK   CLOUDY    26  16  65 W14       29.83R WCI  14
BENTON HARBOR  CLOUDY    31  18  58 W16G22    29.88S WCI  20
BIG RAPIDS     LGT SNOW  22  17  81 W7        29.77S WCI  13
COLDWATER      CLOUDY    26  17  67 W12       29.85R WCI  16
HOLLAND        MOCLDY    28  15  58 W12       29.85R WCI  18
GRAND RAPIDS   LGT SNOW  26  19  74 W9        29.82R WCI  17
IONIA          CLOUDY    26  19  74 W12       29.80R WCI  15
KALAMAZOO      CLOUDY    28  15  58 W14G21    29.85R WCI  17
LUDINGTON      CLOUDY    24  13  63 W10G17    29.80R WCI  13
MARSHALL       CLOUDY    26  16  67 W15       29.83R WCI  13
MOUNT PLEASANT CLOUDY    25  13  62 W10G16    29.77R WCI  15
MUSKEGON       CLOUDY    27  14  58 W17G24    29.83R WCI  14
SOUTH HAVEN    CLOUDY    31  17  56 W10G21    29.87R WCI  22
$$
MIZ016>042-152200-
NORTHERN LOWER MICHIGAN

CITY           SKY/WX    TMP DP  RH WIND       PRES   REMARKS
ALPENA         CLOUDY    25  18  74 VRB7      29.66R WCI  17
BEAVER ISLAND  CLOUDY    25  14  63 NW10G18   29.70R WCI  15
BELLAIRE       FLURRIES  26  20  80 W9        29.72R WCI  16
CADILLAC       FLURRIES  20  16  85 W12       29.71R WCI   8
CHARLEVOIX     CLOUDY    26  14  60 W21G28    29.72R HAZE    WCI  12
FRANKFORT      MOCLDY    26  15  63 W12G22    29.77R WCI  15
GAYLORD        HVY SNOW  21  16  81 W12G22    29.65R VSB 1/4 WCI   9
GRAYLING       LGT SNOW  23  17  77 W10G22    29.68R WCI  12
HARBOR SPRINGS FLURRIES  24  17  73 NW9       29.68R WCI  15
HOUGHTON LAKE  MOCLDY    21  14  74 W15G24    29.70R WCI   8
MANISTEE       FLURRIES  23  15  71 W16       29.78R WCI  10
OSCODA         CLOUDY    25  15  66 W15G21    29.68R WCI  12
PELLSTON       LGT SNOW  24  20  84 NW14      29.68R VSB 1   WCI  12
ROGERS CITY    LGT SNOW  25  20  80 W8        29.65S WCI  16
TRAVERSE CITY  FLURRIES  24  17  74 W10       29.73R WCI  14
$$
MIZ007>008-015-152200-
EASTERN UPPER MICHIGAN

CITY           SKY/WX    TMP DP  RH WIND       PRES   REMARKS
KINROSS        CLOUDY    23  19  85 W10       29.63S WCI  12
MACKINAC ISLAN CLOUDY    25  19  76 NW15      29.65R WCI  13
NEWBERRY       LGT SNOW  21  17  86 NW15G22   29.66R WCI   8
S. S. MARIE    SNOW      24  21  88 NW6       29.62R VSB 1/2 WCI  17
MUNISING         N/A     21  18  88 W8        29.72R WCI  11
$$
MIZ004>006-011>014-085-152200-
CENTRAL UPPER MICHIGAN

CITY           SKY/WX    TMP DP  RH WIND       PRES   REMARKS
MANISTIQUE     CLOUDY    24  -1  33 NW12G20   29.70S WCI  13
ESCANABA       PTCLDY    22   8  55 W13       29.75R WCI  10
SAWYER-GWINN   PTCLDY    16  10  79 N9        29.70R WCI   4
$$
MIZ001>003-009>011-084-152200-
WESTERN UPPER MICHIGAN

CITY           SKY/WX    TMP DP  RH WIND       PRES   REMARKS
IRON MOUNTAIN  MOCLDY    19   7  59 NW12      29.72R WCI   7
HOUGHTON       LGT SNOW  14   6  70 NW9       29.73R WCI   2
COPPER HARBOR    N/A     17  11  77 N18G26    29.75S WCI   1
IRONWOOD       FLURRIES  13   5  70 W9        29.77S WCI   1
$$

ABBREVIATIONS USED IN REMARKS
   TC - TEMPERATURE IN CELSIUS
  WCI - WIND CHILL INDEX
   HX - HEAT INDEX
  VSB - VISIBILITY





USA.gov is the U.S. government's official web portal to all federal, state and local government web resources and services.